Time,TemperatureF,DewpointF,PressureIn,WindDirection,WindDirectionDegrees,WindSpeedMPH,WindSpeedGustMPH,Humidity,HourlyPrecipIn,Conditions,Clouds,dailyrainin,SoftwareType,DateUTC
2013-04-19 00:02:00,58.8,55.9,29.92,West,270,2.0,9.0,90,0.04,,,0.07,meteohub,2013-04-19 05:02:00,
2013-04-19 00:07:00,58.6,55.9,29.91,NW,315,3.0,6.0,91,0.06,,,0.09,meteohub,2013-04-19 05:07:00,
2013-04-19 00:12:00,58.5,55.8,29.91,North,0,2.0,7.0,91,0.14,,,0.18,meteohub,2013-04-19 05:12:00,
2013-04-19 00:17:00,58.5,55.8,29.91,West,270,3.0,7.0,91,0.15,,,0.19,meteohub,2013-04-19 05:17:00,
2013-04-19 00:22:00,58.5,56.1,29.91,West,270,2.0,7.0,92,0.17,,,0.20,meteohub,2013-04-19 05:22:00,
2013-04-19 00:27:00,58.3,55.9,29.92,North,0,2.0,7.0,92,0.17,,,0.20,meteohub,2013-04-19 05:27:00,
2013-04-19 00:37:00,58.3,56.3,29.91,West,270,4.0,7.0,93,0.15,,,0.20,meteohub,2013-04-19 05:37:00,
2013-04-19 00:47:00,57.4,55.0,29.93,NW,315,7.0,9.0,92,0.14,,,0.20,meteohub,2013-04-19 05:47:00,
2013-04-19 00:52:00,57.0,54.7,29.92,NW,315,4.0,9.0,92,0.14,,,0.20,meteohub,2013-04-19 05:52:00,
2013-04-19 00:57:00,56.7,54.7,29.92,West,270,3.0,8.0,93,0.14,,,0.20,meteohub,2013-04-19 05:57:00,
2013-04-19 01:07:00,56.7,54.7,29.93,West,270,3.0,5.0,93,0.13,,,0.22,meteohub,2013-04-19 06:07:00,
2013-04-19 01:12:00,56.1,54.1,29.92,North,0,3.0,4.0,93,0.06,,,0.25,meteohub,2013-04-19 06:12:00,
2013-04-19 01:17:00,55.8,53.8,29.93,North,0,3.0,8.0,93,0.07,,,0.26,meteohub,2013-04-19 06:17:00,
2013-04-19 01:22:00,55.8,53.8,29.93,SE,135,2.0,8.0,93,0.09,,,0.30,meteohub,2013-04-19 06:22:00,
2013-04-19 01:27:00,55.4,53.4,29.94,NE,45,5.0,5.0,93,0.09,,,0.30,meteohub,2013-04-19 06:27:00,
2013-04-19 01:32:00,55.2,53.2,29.94,South,180,2.0,7.0,93,0.11,,,0.31,meteohub,2013-04-19 06:32:00,
2013-04-19 01:37:00,55.4,53.4,29.94,South,180,2.0,7.0,93,0.12,,,0.32,meteohub,2013-04-19 06:37:00,
2013-04-19 01:42:00,55.2,53.2,29.95,West,270,4.0,5.0,93,0.12,,,0.32,meteohub,2013-04-19 06:42:00,
2013-04-19 01:47:00,54.9,52.9,29.95,WSW,248,3.0,4.0,93,0.12,,,0.32,meteohub,2013-04-19 06:47:00,
2013-04-19 01:52:00,54.9,52.9,29.96,SW,225,2.0,10.0,93,0.12,,,0.32,meteohub,2013-04-19 06:52:00,
2013-04-19 01:57:00,54.9,52.9,29.95,West,270,3.0,10.0,93,0.09,,,0.32,meteohub,2013-04-19 06:57:00,
2013-04-19 02:02:00,54.7,52.7,29.95,NW,315,2.0,10.0,93,0.09,,,0.32,meteohub,2013-04-19 07:02:00,
2013-04-19 02:07:00,54.7,52.7,29.96,NW,315,2.0,5.0,93,0.09,,,0.32,meteohub,2013-04-19 07:07:00,
2013-04-19 02:17:00,54.3,52.7,29.94,North,0,2.0,5.0,94,0.04,,,0.32,meteohub,2013-04-19 07:17:00,
2013-04-19 02:22:00,54.1,52.5,29.95,West,270,5.0,5.0,94,0.02,,,0.32,meteohub,2013-04-19 07:22:00,
2013-04-19 02:27:00,54.1,52.5,29.95,South,180,6.0,6.0,94,0.02,,,0.32,meteohub,2013-04-19 07:27:00,
2013-04-19 02:32:00,53.6,51.6,29.95,WSW,248,4.0,13.0,93,0.02,,,0.33,meteohub,2013-04-19 07:32:00,
2013-04-19 02:37:00,53.4,51.4,29.95,NE,45,3.0,13.0,93,0.01,,,0.33,meteohub,2013-04-19 07:37:00,
2013-04-19 02:42:00,53.2,51.3,29.96,SW,225,7.0,13.0,93,0.01,,,0.33,meteohub,2013-04-19 07:42:00,
2013-04-19 02:47:00,53.1,51.1,29.95,NW,315,4.0,11.0,93,0.01,,,0.33,meteohub,2013-04-19 07:47:00,
2013-04-19 02:52:00,52.9,50.9,29.96,West,270,4.0,8.0,93,0.01,,,0.33,meteohub,2013-04-19 07:52:00,
2013-04-19 02:57:00,52.9,50.9,29.95,SE,135,3.0,7.0,93,0.01,,,0.33,meteohub,2013-04-19 07:57:00,
2013-04-19 03:02:00,52.9,50.9,29.95,West,270,3.0,7.0,93,0.01,,,0.33,meteohub,2013-04-19 08:02:00,
2013-04-19 03:07:00,52.9,50.9,29.95,West,270,3.0,4.0,93,0.01,,,0.33,meteohub,2013-04-19 08:07:00,
2013-04-19 03:12:00,52.9,51.3,29.94,NE,45,7.0,7.0,94,0.01,,,0.33,meteohub,2013-04-19 08:12:00,
2013-04-19 03:17:00,52.9,51.3,29.96,NW,315,12.0,12.0,94,0.01,,,0.33,meteohub,2013-04-19 08:17:00,
2013-04-19 03:22:00,52.7,51.1,29.96,WNW,293,4.0,12.0,94,0.01,,,0.33,meteohub,2013-04-19 08:22:00,
2013-04-19 03:32:00,52.7,51.1,29.95,NW,315,2.0,12.0,94,0.00,,,0.33,meteohub,2013-04-19 08:32:00,
2013-04-19 03:37:00,52.7,51.1,29.96,SW,225,8.0,9.0,94,0.00,,,0.33,meteohub,2013-04-19 08:37:00,
2013-04-19 03:42:00,52.5,50.9,29.97,West,270,2.0,9.0,94,0.00,,,0.33,meteohub,2013-04-19 08:42:00,
2013-04-19 03:47:00,52.5,50.9,29.98,NW,315,2.0,9.0,94,0.00,,,0.33,meteohub,2013-04-19 08:47:00,
2013-04-19 03:52:00,52.5,50.9,29.98,NW,315,4.0,9.0,94,0.00,,,0.33,meteohub,2013-04-19 08:52:00,
2013-04-19 03:57:00,52.5,50.9,29.98,North,0,8.0,9.0,94,0.00,,,0.33,meteohub,2013-04-19 08:57:00,
2013-04-19 04:02:00,52.5,50.9,29.99,North,0,9.0,9.0,94,0.00,,,0.33,meteohub,2013-04-19 09:02:00,
2013-04-19 04:07:00,52.5,50.9,29.99,North,0,9.0,11.0,94,0.00,,,0.33,meteohub,2013-04-19 09:07:00,
2013-04-19 04:12:00,52.3,50.7,29.99,West,270,4.0,11.0,94,0.00,,,0.33,meteohub,2013-04-19 09:12:00,
2013-04-19 04:17:00,52.5,50.9,29.99,NW,315,2.0,9.0,94,0.00,,,0.33,meteohub,2013-04-19 09:17:00,
2013-04-19 04:22:00,52.3,50.7,29.99,NW,315,5.0,9.0,94,0.00,,,0.33,meteohub,2013-04-19 09:22:00,
2013-04-19 04:27:00,52.3,50.7,30.00,SSW,203,4.0,6.0,94,0.00,,,0.33,meteohub,2013-04-19 09:27:00,
2013-04-19 04:32:00,52.2,50.5,30.00,NW,315,4.0,6.0,94,0.00,,,0.33,meteohub,2013-04-19 09:32:00,
2013-04-19 04:37:00,52.0,50.4,30.00,West,270,5.0,13.0,94,0.00,,,0.33,meteohub,2013-04-19 09:37:00,
2013-04-19 04:42:00,52.0,50.4,30.01,West,270,3.0,13.0,94,0.00,,,0.33,meteohub,2013-04-19 09:42:00,
2013-04-19 04:47:00,51.8,49.8,30.01,NNE,23,4.0,13.0,93,0.00,,,0.33,meteohub,2013-04-19 09:47:00,
2013-04-19 04:52:00,51.3,49.1,30.00,West,270,3.0,11.0,92,0.00,,,0.33,meteohub,2013-04-19 09:52:00,
2013-04-19 04:57:00,51.3,48.7,30.01,SW,225,4.0,11.0,91,0.00,,,0.33,meteohub,2013-04-19 09:57:00,
2013-04-19 05:07:00,51.1,48.6,29.99,West,270,4.0,11.0,91,0.00,,,0.33,meteohub,2013-04-19 10:07:00,
2013-04-19 05:12:00,50.7,47.7,29.99,NW,315,3.0,6.0,89,0.00,,,0.33,meteohub,2013-04-19 10:12:00,
2013-04-19 05:17:00,50.5,47.1,30.00,South,180,5.0,9.0,88,0.00,,,0.33,meteohub,2013-04-19 10:17:00,
2013-04-19 05:22:00,50.5,47.1,30.00,West,270,2.0,9.0,88,0.00,,,0.33,meteohub,2013-04-19 10:22:00,
2013-04-19 05:27:00,50.5,47.1,30.00,NW,315,4.0,9.0,88,0.00,,,0.33,meteohub,2013-04-19 10:27:00,
2013-04-19 05:32:00,50.4,46.6,30.01,NE,45,5.0,8.0,87,0.00,,,0.33,meteohub,2013-04-19 10:32:00,
2013-04-19 05:37:00,50.5,46.8,30.01,SW,225,4.0,11.0,87,0.00,,,0.33,meteohub,2013-04-19 10:37:00,
2013-04-19 05:42:00,50.5,46.8,30.01,North,0,6.0,11.0,87,0.00,,,0.33,meteohub,2013-04-19 10:42:00,
2013-04-19 05:47:00,50.4,46.4,30.01,West,270,4.0,12.0,86,0.00,,,0.33,meteohub,2013-04-19 10:47:00,
2013-04-19 05:52:00,50.4,46.4,30.01,North,0,8.0,12.0,86,0.00,,,0.33,meteohub,2013-04-19 10:52:00,
2013-04-19 05:57:00,50.4,46.0,30.02,NW,315,9.0,12.0,85,0.00,,,0.33,meteohub,2013-04-19 10:57:00,
2013-04-19 06:02:00,50.4,46.0,30.03,North,0,4.0,9.0,85,0.00,,,0.33,meteohub,2013-04-19 11:02:00,
2013-04-19 06:07:00,50.4,45.7,30.04,West,270,5.0,9.0,84,0.00,,,0.33,meteohub,2013-04-19 11:07:00,
2013-04-19 06:12:00,50.4,45.7,30.05,NE,45,3.0,9.0,84,0.00,,,0.33,meteohub,2013-04-19 11:12:00,
2013-04-19 06:17:00,50.4,45.7,30.05,North,0,2.0,8.0,84,0.00,,,0.33,meteohub,2013-04-19 11:17:00,
2013-04-19 06:22:00,50.2,45.1,30.06,West,270,3.0,8.0,83,0.00,,,0.33,meteohub,2013-04-19 11:22:00,
2013-04-19 06:27:00,50.4,45.3,30.05,SW,225,4.0,8.0,83,0.00,,,0.33,meteohub,2013-04-19 11:27:00,
2013-04-19 06:32:00,50.2,45.1,30.06,NW,315,3.0,8.0,83,0.00,,,0.33,meteohub,2013-04-19 11:32:00,
2013-04-19 06:37:00,50.4,45.1,30.06,SW,225,9.0,9.0,82,0.00,,,0.33,meteohub,2013-04-19 11:37:00,
2013-04-19 06:42:00,50.2,44.2,30.07,NW,315,4.0,15.0,80,0.00,,,0.33,meteohub,2013-04-19 11:42:00,
2013-04-19 06:47:00,50.4,44.4,30.06,West,270,3.0,15.0,80,0.00,,,0.33,meteohub,2013-04-19 11:47:00,
2013-04-19 06:52:00,50.4,44.4,30.06,WSW,248,6.0,15.0,80,0.00,,,0.33,meteohub,2013-04-19 11:52:00,
2013-04-19 06:57:00,50.2,44.2,30.06,NW,315,7.0,15.0,80,0.00,,,0.33,meteohub,2013-04-19 11:57:00,
2013-04-19 07:02:00,50.2,44.2,30.07,NNE,23,6.0,8.0,80,0.00,,,0.33,meteohub,2013-04-19 12:02:00,
2013-04-19 07:07:00,50.2,44.2,30.07,NNE,23,6.0,8.0,80,0.00,,,0.33,meteohub,2013-04-19 12:07:00,
2013-04-19 07:12:00,50.2,44.2,30.09,West,270,8.0,8.0,80,0.00,,,0.33,meteohub,2013-04-19 12:12:00,
2013-04-19 07:17:00,50.2,43.9,30.09,North,0,4.0,8.0,79,0.00,,,0.33,meteohub,2013-04-19 12:17:00,
2013-04-19 07:22:00,50.2,43.9,30.10,West,270,3.0,8.0,79,0.00,,,0.33,meteohub,2013-04-19 12:22:00,
2013-04-19 07:27:00,50.0,43.3,30.11,SW,225,4.0,8.0,78,0.00,,,0.33,meteohub,2013-04-19 12:27:00,
2013-04-19 07:32:00,50.0,43.3,30.11,West,270,9.0,9.0,78,0.00,,,0.33,meteohub,2013-04-19 12:32:00,
2013-04-19 07:37:00,49.6,42.8,30.12,WSW,248,3.0,9.0,77,0.00,,,0.33,meteohub,2013-04-19 12:37:00,
2013-04-19 07:42:00,49.8,42.6,30.12,NNW,338,6.0,9.0,76,0.00,,,0.33,meteohub,2013-04-19 12:42:00,
2013-04-19 07:47:00,49.6,42.4,30.12,South,180,5.0,9.0,76,0.00,,,0.33,meteohub,2013-04-19 12:47:00,
2013-04-19 07:57:00,49.5,42.3,30.12,NW,315,2.0,9.0,76,0.00,,,0.33,meteohub,2013-04-19 12:57:00,
2013-04-19 08:02:00,49.5,42.3,30.12,South,180,2.0,8.0,76,0.00,,,0.33,meteohub,2013-04-19 13:02:00,
2013-04-19 08:07:00,49.5,42.3,30.12,South,180,2.0,8.0,76,0.00,,,0.33,meteohub,2013-04-19 13:07:00,
2013-04-19 08:12:00,49.1,41.5,30.13,NW,315,4.0,4.0,75,0.00,,,0.33,meteohub,2013-04-19 13:12:00,
2013-04-19 08:22:00,49.1,41.5,30.13,West,270,4.0,7.0,75,0.00,,,0.33,meteohub,2013-04-19 13:22:00,
2013-04-19 08:27:00,49.3,41.4,30.13,NW,315,3.0,8.0,74,0.00,,,0.33,meteohub,2013-04-19 13:27:00,
2013-04-19 08:32:00,48.9,40.6,30.13,NW,315,4.0,8.0,73,0.00,,,0.33,meteohub,2013-04-19 13:32:00,
2013-04-19 08:37:00,48.9,40.3,30.14,NW,315,8.0,8.0,72,0.00,,,0.33,meteohub,2013-04-19 13:37:00,
2013-04-19 08:42:00,48.9,40.3,30.15,West,270,2.0,8.0,72,0.00,,,0.33,meteohub,2013-04-19 13:42:00,
2013-04-19 08:47:00,49.1,40.5,30.14,West,270,2.0,10.0,72,0.00,,,0.33,meteohub,2013-04-19 13:47:00,
2013-04-19 08:52:00,49.3,39.9,30.14,WNW,293,4.0,10.0,70,0.00,,,0.33,meteohub,2013-04-19 13:52:00,
2013-04-19 08:57:00,49.3,39.6,30.14,SW,225,6.0,11.0,69,0.00,,,0.33,meteohub,2013-04-19 13:57:00,
2013-04-19 09:02:00,49.1,39.0,30.14,East,90,8.0,11.0,68,0.00,,,0.33,meteohub,2013-04-19 14:02:00,
2013-04-19 09:07:00,49.1,39.0,30.14,East,90,8.0,11.0,68,0.00,,,0.33,meteohub,2013-04-19 14:07:00,
2013-04-19 09:12:00,49.1,38.7,30.13,NW,315,4.0,8.0,67,0.00,,,0.33,meteohub,2013-04-19 14:12:00,
2013-04-19 09:17:00,49.1,38.7,30.14,North,0,7.0,8.0,67,0.00,,,0.33,meteohub,2013-04-19 14:17:00,
2013-04-19 09:22:00,49.3,38.5,30.14,NE,45,4.0,10.0,66,0.00,,,0.33,meteohub,2013-04-19 14:22:00,
2013-04-19 09:27:00,49.5,38.1,30.14,West,270,2.0,10.0,65,0.00,,,0.33,meteohub,2013-04-19 14:27:00,
2013-04-19 09:32:00,49.8,38.5,30.15,NW,315,2.0,10.0,65,0.00,,,0.33,meteohub,2013-04-19 14:32:00,
2013-04-19 09:37:00,49.8,38.8,30.16,SW,225,2.0,8.0,66,0.00,,,0.33,meteohub,2013-04-19 14:37:00,
2013-04-19 09:42:00,50.4,39.4,30.16,South,180,2.0,8.0,66,0.00,,,0.33,meteohub,2013-04-19 14:42:00,
2013-04-19 09:47:00,50.4,39.0,30.16,NW,315,3.0,4.0,65,0.00,,,0.33,meteohub,2013-04-19 14:47:00,
2013-04-19 09:52:00,50.2,38.8,30.16,NE,45,1.0,5.0,65,0.00,,,0.33,meteohub,2013-04-19 14:52:00,
2013-04-19 09:57:00,50.7,39.4,30.17,North,0,4.0,5.0,65,0.00,,,0.33,meteohub,2013-04-19 14:57:00,
2013-04-19 10:02:00,50.7,39.0,30.16,North,0,2.0,5.0,64,0.00,,,0.33,meteohub,2013-04-19 15:02:00,
2013-04-19 10:07:00,50.7,39.0,30.17,North,0,2.0,4.0,64,0.00,,,0.33,meteohub,2013-04-19 15:07:00,
2013-04-19 10:12:00,50.7,38.7,30.17,North,0,3.0,4.0,63,0.00,,,0.33,meteohub,2013-04-19 15:12:00,
2013-04-19 10:17:00,50.9,38.3,30.17,West,270,2.0,4.0,62,0.00,,,0.33,meteohub,2013-04-19 15:17:00,
2013-04-19 10:22:00,50.7,37.8,30.17,West,270,3.0,4.0,61,0.00,,,0.33,meteohub,2013-04-19 15:22:00,
2013-04-19 10:27:00,50.7,37.4,30.17,North,0,2.0,4.0,60,0.00,,,0.33,meteohub,2013-04-19 15:27:00,
2013-04-19 10:32:00,50.7,38.1,30.15,West,270,5.0,6.0,62,0.00,,,0.33,meteohub,2013-04-19 15:32:00,
2013-04-19 10:37:00,50.5,37.6,30.15,South,180,3.0,6.0,61,0.00,,,0.33,meteohub,2013-04-19 15:37:00,
2013-04-19 10:42:00,50.5,37.6,30.16,NW,315,3.0,6.0,61,0.00,,,0.33,meteohub,2013-04-19 15:42:00,
2013-04-19 10:47:00,50.5,37.2,30.16,NE,45,3.0,5.0,60,0.00,,,0.33,meteohub,2013-04-19 15:47:00,
2013-04-19 10:52:00,50.5,37.6,30.16,North,0,4.0,4.0,61,0.00,,,0.33,meteohub,2013-04-19 15:52:00,
2013-04-19 11:02:00,50.5,37.9,30.17,North,0,2.0,4.0,62,0.00,,,0.33,meteohub,2013-04-19 16:02:00,
2013-04-19 11:07:00,50.5,37.9,30.17,North,0,2.0,4.0,62,0.00,,,0.33,meteohub,2013-04-19 16:07:00,
2013-04-19 11:12:00,51.1,38.1,30.16,NW,315,4.0,4.0,61,0.00,,,0.33,meteohub,2013-04-19 16:12:00,
2013-04-19 11:17:00,51.4,38.5,30.17,NE,45,2.0,5.0,61,0.00,,,0.33,meteohub,2013-04-19 16:17:00,
2013-04-19 11:22:00,52.0,39.0,30.17,West,270,2.0,5.0,61,0.00,,,0.33,meteohub,2013-04-19 16:22:00,
2013-04-19 11:27:00,52.5,39.4,30.17,West,270,2.0,5.0,61,0.00,,,0.33,meteohub,2013-04-19 16:27:00,
2013-04-19 11:32:00,52.7,38.8,30.18,NW,315,3.0,4.0,59,0.00,,,0.33,meteohub,2013-04-19 16:32:00,
2013-04-19 11:37:00,52.7,38.8,30.16,West,270,2.0,4.0,59,0.00,,,0.33,meteohub,2013-04-19 16:37:00,
2013-04-19 11:42:00,52.5,38.1,30.16,NW,315,5.0,7.0,58,0.00,,,0.33,meteohub,2013-04-19 16:42:00,
2013-04-19 11:47:00,52.5,38.1,30.16,SSE,158,2.0,7.0,58,0.00,,,0.33,meteohub,2013-04-19 16:47:00,
2013-04-19 11:52:00,52.7,38.3,30.16,SW,225,2.0,7.0,58,0.00,,,0.33,meteohub,2013-04-19 16:52:00,
2013-04-19 11:57:00,52.9,38.5,30.16,NE,45,4.0,5.0,58,0.00,,,0.33,meteohub,2013-04-19 16:57:00,
2013-04-19 12:07:00,52.9,37.6,30.16,NW,315,2.0,5.0,56,0.00,,,0.33,meteohub,2013-04-19 17:07:00,
2013-04-19 12:12:00,52.7,36.5,30.14,North,0,2.0,5.0,54,0.00,,,0.33,meteohub,2013-04-19 17:12:00,
2013-04-19 12:17:00,52.9,37.2,30.14,West,270,3.0,5.0,55,0.00,,,0.33,meteohub,2013-04-19 17:17:00,
2013-04-19 12:22:00,53.2,37.4,30.13,NW,315,4.0,6.0,55,0.00,,,0.33,meteohub,2013-04-19 17:22:00,
2013-04-19 12:27:00,53.8,38.5,30.13,NW,315,3.0,6.0,56,0.00,,,0.33,meteohub,2013-04-19 17:27:00,
2013-04-19 12:32:00,54.0,36.7,30.12,NW,315,6.0,6.0,52,0.00,,,0.33,meteohub,2013-04-19 17:32:00,
2013-04-19 12:37:00,54.0,36.7,30.12,West,270,5.0,9.0,52,0.00,,,0.33,meteohub,2013-04-19 17:37:00,
2013-04-19 12:42:00,54.1,37.9,30.13,West,270,2.0,9.0,54,0.00,,,0.33,meteohub,2013-04-19 17:42:00,
2013-04-19 12:47:00,54.1,37.9,30.14,North,0,4.0,9.0,54,0.00,,,0.33,meteohub,2013-04-19 17:47:00,
2013-04-19 12:52:00,54.5,37.8,30.14,North,0,4.0,5.0,53,0.00,,,0.33,meteohub,2013-04-19 17:52:00,
2013-04-19 12:57:00,54.9,37.6,30.14,SW,225,3.0,4.0,52,0.00,,,0.33,meteohub,2013-04-19 17:57:00,
2013-04-19 13:02:00,55.0,37.2,30.14,South,180,2.0,4.0,51,0.00,,,0.33,meteohub,2013-04-19 18:02:00,
2013-04-19 13:07:00,55.0,37.2,30.12,South,180,2.0,4.0,51,0.00,,,0.33,meteohub,2013-04-19 18:07:00,
2013-04-19 13:12:00,56.5,37.0,30.12,South,180,4.0,4.0,48,0.00,,,0.33,meteohub,2013-04-19 18:12:00,
2013-04-19 13:17:00,56.7,36.7,30.12,North,0,4.0,6.0,47,0.00,,,0.33,meteohub,2013-04-19 18:17:00,
2013-04-19 13:22:00,56.7,36.7,30.11,West,270,5.0,6.0,47,0.00,,,0.33,meteohub,2013-04-19 18:22:00,
2013-04-19 13:27:00,56.7,36.1,30.11,West,270,2.0,6.0,46,0.00,,,0.33,meteohub,2013-04-19 18:27:00,
2013-04-19 13:32:00,57.2,37.2,30.11,NNW,338,4.0,5.0,47,0.00,,,0.33,meteohub,2013-04-19 18:32:00,
2013-04-19 13:37:00,57.9,37.2,30.11,NW,315,3.0,8.0,46,0.00,,,0.33,meteohub,2013-04-19 18:37:00,
2013-04-19 13:42:00,58.6,36.1,30.11,West,270,4.0,8.0,43,0.00,,,0.33,meteohub,2013-04-19 18:42:00,
2013-04-19 13:47:00,59.9,37.4,30.10,West,270,4.0,8.0,43,0.00,,,0.33,meteohub,2013-04-19 18:47:00,
2013-04-19 13:52:00,60.6,34.9,30.10,West,270,4.0,8.0,38,0.00,,,0.33,meteohub,2013-04-19 18:52:00,
2013-04-19 13:57:00,60.6,34.9,30.09,West,270,6.0,7.0,38,0.00,,,0.33,meteohub,2013-04-19 18:57:00,
2013-04-19 14:02:00,60.6,35.6,30.10,ENE,68,13.0,13.0,39,0.00,,,0.33,meteohub,2013-04-19 19:02:00,
2013-04-19 14:12:00,61.3,36.1,30.10,NNE,23,4.0,13.0,39,0.00,,,0.33,meteohub,2013-04-19 19:12:00,
2013-04-19 14:17:00,61.9,34.7,30.10,NNE,23,5.0,15.0,36,0.00,,,0.33,meteohub,2013-04-19 19:17:00,
2013-04-19 14:22:00,62.4,36.5,30.11,NW,315,5.0,15.0,38,0.00,,,0.33,meteohub,2013-04-19 19:22:00,
2013-04-19 14:27:00,62.6,31.5,30.11,NW,315,6.0,11.0,31,0.00,,,0.33,meteohub,2013-04-19 19:27:00,
2013-04-19 14:37:00,63.0,31.8,30.11,NW,315,7.0,8.0,31,0.00,,,0.33,meteohub,2013-04-19 19:37:00,
2013-04-19 14:42:00,63.0,31.8,30.10,South,180,8.0,8.0,31,0.00,,,0.33,meteohub,2013-04-19 19:42:00,
2013-04-19 14:47:00,62.8,30.9,30.11,North,0,6.0,9.0,30,0.00,,,0.33,meteohub,2013-04-19 19:47:00,
2013-04-19 14:52:00,63.0,28.4,30.11,NW,315,7.0,9.0,27,0.00,,,0.33,meteohub,2013-04-19 19:52:00,
2013-04-19 14:57:00,63.1,32.7,30.11,West,270,4.0,11.0,32,0.00,,,0.33,meteohub,2013-04-19 19:57:00,
2013-04-19 15:02:00,63.0,31.8,30.10,NE,45,5.0,11.0,31,0.00,,,0.33,meteohub,2013-04-19 20:02:00,
2013-04-19 15:07:00,63.0,31.8,30.10,NE,45,5.0,11.0,31,0.00,,,0.33,meteohub,2013-04-19 20:07:00,
2013-04-19 15:12:00,63.9,30.9,30.11,West,270,3.0,9.0,29,0.00,,,0.33,meteohub,2013-04-19 20:12:00,
2013-04-19 15:17:00,63.7,29.1,30.12,WSW,248,4.0,7.0,27,0.00,,,0.33,meteohub,2013-04-19 20:17:00,
2013-04-19 15:22:00,63.7,30.0,30.10,West,270,2.0,10.0,28,0.00,,,0.33,meteohub,2013-04-19 20:22:00,
2013-04-19 15:27:00,64.2,28.6,30.09,North,0,4.0,10.0,26,0.00,,,0.33,meteohub,2013-04-19 20:27:00,
2013-04-19 15:32:00,64.6,29.8,30.09,NW,315,5.0,10.0,27,0.00,,,0.33,meteohub,2013-04-19 20:32:00,
2013-04-19 15:37:00,64.4,26.8,30.09,NW,315,7.0,8.0,24,0.00,,,0.33,meteohub,2013-04-19 20:37:00,
2013-04-19 15:42:00,63.5,29.8,30.10,NE,45,4.0,8.0,28,0.00,,,0.33,meteohub,2013-04-19 20:42:00,
2013-04-19 15:47:00,63.9,30.9,30.10,NW,315,3.0,7.0,29,0.00,,,0.33,meteohub,2013-04-19 20:47:00,
2013-04-19 15:52:00,63.9,30.9,30.09,NW,315,3.0,11.0,29,0.00,,,0.33,meteohub,2013-04-19 20:52:00,
2013-04-19 15:57:00,64.2,29.5,30.09,NW,315,4.0,11.0,27,0.00,,,0.33,meteohub,2013-04-19 20:57:00,
2013-04-19 16:02:00,64.6,29.8,30.09,SE,135,8.0,8.0,27,0.00,,,0.33,meteohub,2013-04-19 21:02:00,
2013-04-19 16:12:00,63.5,32.4,30.08,WNW,293,4.0,8.0,31,0.00,,,0.33,meteohub,2013-04-19 21:12:00,
2013-04-19 16:22:00,63.1,30.4,30.08,South,180,5.0,8.0,29,0.00,,,0.33,meteohub,2013-04-19 21:22:00,
2013-04-19 16:27:00,62.2,30.4,30.07,NW,315,3.0,8.0,30,0.00,,,0.33,meteohub,2013-04-19 21:27:00,
2013-04-19 16:32:00,63.1,32.0,30.07,NW,315,2.0,8.0,31,0.00,,,0.33,meteohub,2013-04-19 21:32:00,
2013-04-19 16:37:00,63.7,32.5,30.06,NW,315,5.0,11.0,31,0.00,,,0.33,meteohub,2013-04-19 21:37:00,
2013-04-19 16:42:00,63.9,30.9,30.07,West,270,7.0,11.0,29,0.00,,,0.33,meteohub,2013-04-19 21:42:00,
2013-04-19 16:47:00,63.9,30.2,30.06,NE,45,11.0,11.0,28,0.00,,,0.33,meteohub,2013-04-19 21:47:00,
2013-04-19 16:52:00,63.7,32.5,30.08,NW,315,6.0,11.0,31,0.00,,,0.33,meteohub,2013-04-19 21:52:00,
2013-04-19 16:57:00,63.5,28.9,30.08,NNW,338,4.0,11.0,27,0.00,,,0.33,meteohub,2013-04-19 21:57:00,
2013-04-19 17:02:00,63.5,28.0,30.09,West,270,4.0,11.0,26,0.00,,,0.33,meteohub,2013-04-19 22:02:00,
2013-04-19 17:07:00,63.5,28.0,30.09,West,270,4.0,8.0,26,0.00,,,0.33,meteohub,2013-04-19 22:07:00,
2013-04-19 17:12:00,62.8,27.3,30.09,North,0,4.0,6.0,26,0.00,,,0.33,meteohub,2013-04-19 22:12:00,
2013-04-19 17:17:00,62.6,27.1,30.09,NW,315,4.0,8.0,26,0.00,,,0.33,meteohub,2013-04-19 22:17:00,
2013-04-19 17:27:00,62.4,30.6,30.09,West,270,5.0,9.0,30,0.00,,,0.33,meteohub,2013-04-19 22:27:00,
2013-04-19 17:32:00,62.2,27.9,30.09,NW,315,5.0,9.0,27,0.00,,,0.33,meteohub,2013-04-19 22:32:00,
2013-04-19 17:42:00,62.6,29.8,30.11,West,270,4.0,9.0,29,0.00,,,0.33,meteohub,2013-04-19 22:42:00,
2013-04-19 17:47:00,62.6,29.1,30.10,NW,315,3.0,9.0,28,0.00,,,0.33,meteohub,2013-04-19 22:47:00,
2013-04-19 17:52:00,62.4,29.7,30.11,North,0,4.0,9.0,29,0.00,,,0.33,meteohub,2013-04-19 22:52:00,
2013-04-19 17:57:00,62.4,28.9,30.11,NNE,23,9.0,9.0,28,0.00,,,0.33,meteohub,2013-04-19 22:57:00,
2013-04-19 18:02:00,62.2,29.7,30.11,NE,45,3.0,9.0,29,0.00,,,0.33,meteohub,2013-04-19 23:02:00,
2013-04-19 18:07:00,62.2,29.7,30.12,NE,45,3.0,9.0,29,0.00,,,0.33,meteohub,2013-04-19 23:07:00,
2013-04-19 18:12:00,62.2,30.4,30.12,North,0,3.0,9.0,30,0.00,,,0.33,meteohub,2013-04-19 23:12:00,
2013-04-19 18:17:00,62.2,30.4,30.12,West,270,2.0,8.0,30,0.00,,,0.33,meteohub,2013-04-19 23:17:00,
2013-04-19 18:22:00,62.1,30.2,30.12,South,180,2.0,11.0,30,0.00,,,0.33,meteohub,2013-04-19 23:22:00,
2013-04-19 18:27:00,62.1,29.5,30.12,NE,45,3.0,11.0,29,0.00,,,0.33,meteohub,2013-04-19 23:27:00,
2013-04-19 18:32:00,61.7,29.1,30.12,West,270,2.0,4.0,29,0.00,,,0.33,meteohub,2013-04-19 23:32:00,
2013-04-19 18:37:00,61.3,29.7,30.11,NW,315,2.0,4.0,30,0.00,,,0.33,meteohub,2013-04-19 23:37:00,
2013-04-19 18:42:00,61.0,28.6,30.12,NW,315,7.0,7.0,29,0.00,,,0.33,meteohub,2013-04-19 23:42:00,
2013-04-19 18:47:00,60.8,29.1,30.12,SW,225,3.0,7.0,30,0.00,,,0.33,meteohub,2013-04-19 23:47:00,
2013-04-19 18:52:00,60.4,29.7,30.12,NW,315,2.0,7.0,31,0.00,,,0.33,meteohub,2013-04-19 23:52:00,
2013-04-19 18:57:00,60.4,30.4,30.13,NW,315,2.0,7.0,32,0.00,,,0.33,meteohub,2013-04-19 23:57:00,
2013-04-19 19:02:00,60.4,30.4,30.12,West,270,2.0,7.0,32,0.00,,,0.33,meteohub,2013-04-20 00:02:00,
2013-04-19 19:07:00,60.4,30.4,30.12,West,270,2.0,4.0,32,0.00,,,0.00,meteohub,2013-04-20 00:07:00,
2013-04-19 19:12:00,59.2,30.7,30.12,NW,315,4.0,4.0,34,0.00,,,0.00,meteohub,2013-04-20 00:12:00,
2013-04-19 19:17:00,58.6,31.1,30.12,West,270,2.0,4.0,35,0.00,,,0.00,meteohub,2013-04-20 00:17:00,
2013-04-19 19:22:00,58.3,31.5,30.12,West,270,2.0,4.0,36,0.00,,,0.00,meteohub,2013-04-20 00:22:00,
2013-04-19 19:27:00,57.7,32.4,30.12,West,270,1.0,4.0,38,0.00,,,0.00,meteohub,2013-04-20 00:27:00,
2013-04-19 19:32:00,57.4,32.0,30.13,West,270,1.0,2.0,38,0.00,,,0.00,meteohub,2013-04-20 00:32:00,
2013-04-19 19:37:00,57.0,32.4,30.13,West,270,0.0,2.0,39,0.00,,,0.00,meteohub,2013-04-20 00:37:00,
2013-04-19 19:42:00,56.8,32.7,30.13,North,0,0.0,2.0,40,0.00,,,0.00,meteohub,2013-04-20 00:42:00,
2013-04-19 19:47:00,56.3,32.9,30.13,SW,225,2.0,2.0,41,0.00,,,0.00,meteohub,2013-04-20 00:47:00,
2013-04-19 19:52:00,55.9,33.3,30.14,North,0,2.0,2.0,42,0.00,,,0.00,meteohub,2013-04-20 00:52:00,
2013-04-19 20:02:00,55.6,33.4,30.14,SW,225,0.0,2.0,43,0.00,,,0.00,meteohub,2013-04-20 01:02:00,
2013-04-19 20:07:00,55.6,33.4,30.14,SW,225,0.0,2.0,43,0.00,,,0.00,meteohub,2013-04-20 01:07:00,
2013-04-19 20:12:00,54.9,33.4,30.14,South,180,0.0,1.0,44,0.00,,,0.00,meteohub,2013-04-20 01:12:00,
2013-04-19 20:17:00,54.7,33.8,30.15,South,180,0.0,0.0,45,0.00,,,0.00,meteohub,2013-04-20 01:17:00,
2013-04-19 20:22:00,54.5,34.2,30.15,South,180,0.0,0.0,46,0.00,,,0.00,meteohub,2013-04-20 01:22:00,
2013-04-19 20:27:00,54.3,34.0,30.15,South,180,0.0,0.0,46,0.00,,,0.00,meteohub,2013-04-20 01:27:00,
2013-04-19 20:37:00,54.0,34.2,30.16,South,180,0.0,1.0,47,0.00,,,0.00,meteohub,2013-04-20 01:37:00,
2013-04-19 20:42:00,53.8,34.0,30.15,South,180,0.0,1.0,47,0.00,,,0.00,meteohub,2013-04-20 01:42:00,
2013-04-19 20:47:00,53.6,34.3,30.15,South,180,0.0,1.0,48,0.00,,,0.00,meteohub,2013-04-20 01:47:00,
2013-04-19 20:52:00,53.4,34.2,30.16,South,180,0.0,0.0,48,0.00,,,0.00,meteohub,2013-04-20 01:52:00,
2013-04-19 20:57:00,53.4,34.7,30.16,South,180,1.0,1.0,49,0.00,,,0.00,meteohub,2013-04-20 01:57:00,
2013-04-19 21:02:00,53.4,34.7,30.17,South,180,0.0,1.0,49,0.00,,,0.00,meteohub,2013-04-20 02:02:00,
2013-04-19 21:07:00,53.4,34.7,30.17,South,180,0.0,1.0,49,0.00,,,0.00,meteohub,2013-04-20 02:07:00,
2013-04-19 21:12:00,52.9,34.7,30.17,South,180,0.0,1.0,50,0.00,,,0.00,meteohub,2013-04-20 02:12:00,
2013-04-19 21:17:00,52.7,35.1,30.17,South,180,0.0,1.0,51,0.00,,,0.00,meteohub,2013-04-20 02:17:00,
2013-04-19 21:22:00,52.3,35.2,30.17,NE,45,2.0,2.0,52,0.00,,,0.00,meteohub,2013-04-20 02:22:00,
2013-04-19 21:27:00,52.3,35.8,30.17,South,180,0.0,2.0,53,0.00,,,0.00,meteohub,2013-04-20 02:27:00,
2013-04-19 21:32:00,52.0,35.8,30.17,South,180,0.0,2.0,54,0.00,,,0.00,meteohub,2013-04-20 02:32:00,
2013-04-19 21:37:00,51.8,36.1,30.17,South,180,0.0,2.0,55,0.00,,,0.00,meteohub,2013-04-20 02:37:00,
2013-04-19 21:42:00,51.6,36.5,30.17,South,180,0.0,0.0,56,0.00,,,0.00,meteohub,2013-04-20 02:42:00,
2013-04-19 21:47:00,51.3,36.5,30.17,South,180,0.0,1.0,57,0.00,,,0.00,meteohub,2013-04-20 02:47:00,
2013-04-19 21:52:00,51.1,36.9,30.17,South,180,0.0,1.0,58,0.00,,,0.00,meteohub,2013-04-20 02:52:00,
2013-04-19 21:57:00,50.9,37.0,30.18,South,180,0.0,1.0,59,0.00,,,0.00,meteohub,2013-04-20 02:57:00,
2013-04-19 22:02:00,50.7,36.9,30.18,South,180,0.0,0.0,59,0.00,,,0.00,meteohub,2013-04-20 03:02:00,
2013-04-19 22:07:00,50.7,36.9,30.18,South,180,0.0,0.0,59,0.00,,,0.00,meteohub,2013-04-20 03:07:00,
2013-04-19 22:12:00,50.5,37.6,30.18,South,180,0.0,0.0,61,0.00,,,0.00,meteohub,2013-04-20 03:12:00,
2013-04-19 22:17:00,50.4,37.8,30.18,South,180,0.0,0.0,62,0.00,,,0.00,meteohub,2013-04-20 03:17:00,
2013-04-19 22:22:00,50.4,37.8,30.19,South,180,0.0,0.0,62,0.00,,,0.00,meteohub,2013-04-20 03:22:00,
2013-04-19 22:27:00,50.4,38.3,30.18,South,180,0.0,0.0,63,0.00,,,0.00,meteohub,2013-04-20 03:27:00,
2013-04-19 22:32:00,50.2,38.1,30.19,South,180,0.0,0.0,63,0.00,,,0.00,meteohub,2013-04-20 03:32:00,
2013-04-19 22:37:00,50.0,37.9,30.19,South,180,0.0,0.0,63,0.00,,,0.00,meteohub,2013-04-20 03:37:00,
2013-04-19 22:42:00,50.0,38.3,30.19,East,90,0.0,0.0,64,0.00,,,0.00,meteohub,2013-04-20 03:42:00,
2013-04-19 22:47:00,49.8,38.5,30.19,East,90,0.0,1.0,65,0.00,,,0.00,meteohub,2013-04-20 03:47:00,
2013-04-19 22:52:00,49.8,38.5,30.19,SW,225,1.0,1.0,65,0.00,,,0.00,meteohub,2013-04-20 03:52:00,
2013-04-19 22:57:00,49.6,38.3,30.19,SW,225,1.0,1.0,65,0.00,,,0.00,meteohub,2013-04-20 03:57:00,
2013-04-19 23:02:00,49.5,38.1,30.19,SW,225,1.0,2.0,65,0.00,,,0.00,meteohub,2013-04-20 04:02:00,
2013-04-19 23:07:00,49.5,38.1,30.19,SW,225,1.0,2.0,65,0.00,,,0.00,meteohub,2013-04-20 04:07:00,
2013-04-19 23:17:00,49.3,38.5,30.19,West,270,0.0,1.0,66,0.00,,,0.00,meteohub,2013-04-20 04:17:00,
2013-04-19 23:22:00,48.9,38.5,30.20,East,90,0.0,1.0,67,0.00,,,0.00,meteohub,2013-04-20 04:22:00,
2013-04-19 23:27:00,48.9,38.8,30.20,East,90,1.0,2.0,68,0.00,,,0.00,meteohub,2013-04-20 04:27:00,
2013-04-19 23:32:00,48.7,38.7,30.20,East,90,0.0,2.0,68,0.00,,,0.00,meteohub,2013-04-20 04:32:00,
2013-04-19 23:37:00,48.6,38.5,30.20,East,90,0.0,2.0,68,0.00,,,0.00,meteohub,2013-04-20 04:37:00,
2013-04-19 23:42:00,48.4,38.7,30.20,East,90,0.0,1.0,69,0.00,,,0.00,meteohub,2013-04-20 04:42:00,
2013-04-19 23:47:00,48.2,38.5,30.21,East,90,0.0,0.0,69,0.00,,,0.00,meteohub,2013-04-20 04:47:00,
2013-04-19 23:52:00,48.2,38.5,30.21,NW,315,0.0,0.0,69,0.00,,,0.00,meteohub,2013-04-20 04:52:00,
2013-04-19 23:57:00,48.0,38.7,30.21,NW,315,0.0,0.0,70,0.00,,,0.00,meteohub,2013-04-20 04:57:00,